Kuchera_Ratio
0.0 0.0 0.0 0.0 0.0 0.0 0.0 0.0 7.4 0.0 0.0 3.1 3.1 7.4 1.8 0.0 0.0 0.0 0.0 0.0 0.0 0.0 0.0 2.8 2.2 2.8 0.0 0.0 0.0 0.0 0.0 1.9 8.2 3.4 0.0 0.0 0.0 1.2 3.8 12.2 14.0 13.0 14.7 13.2
0.0 0.0 0.0 0.0 0.0 0.0 0.0 2.8 2.6 0.0 0.0 9.6 8.6 3.4 0.4 0.0 0.0 0.0 0.0 0.0 0.0 0.0 0.0 5.6 0.0 0.0 0.0 0.0 0.0 0.0 0.0 6.4 12.5 13.0 5.8 1.4 2.6 0.1 0.0 1.4 6.2 12.0 15.1 13.2
0.0 0.0 0.0 0.0 0.0 0.0 0.0 4.0 10.6 5.8 1.4 0.8 4.2 5.8 6.6 4.8 0.0 0.0 0.0 0.0 0.0 0.0 1.4 0.2 5.0 0.0 0.0 0.0 0.0 0.0 0.0 3.5 5.0 12.2 9.8 5.8 9.6 5.2 1.2 2.4 11.4 10.4 10.6 11.0
0.0 0.0 0.0 0.0 0.0 0.0 0.0 2.8 8.2 5.2 12.3 8.2 5.2 2.6 3.6 5.6 5.2 0.0 0.0 2.2 2.0 3.8 8.2 6.4 6.8 1.6 0.3 0.0 0.0 0.0 1.4 6.3 6.5 4.7 4.2 3.6 6.2 5.6 4.2 5.6 5.2 11.0 8.4 7.0
0.0 0.0 0.0 0.0 0.0 0.0 0.0 8.0 7.8 4.2 8.6 3.2 6.2 5.6 8.4 7.6 4.2 1.0 4.2 5.0 1.8 0.6 5.9 3.2 8.0 1.0 2.5 2.8 0.8 2.3 4.0 9.8 9.0 10.8 4.8 4.0 8.4 6.2 6.4 5.6 5.4 6.8 6.2 8.0
0.0 0.0 0.0 0.0 0.0 0.0 2.2 1.6 0.0 6.2 8.8 10.8 8.8 8.4 6.4 4.4 2.2 0.4 0.0 0.0 3.2 5.6 2.4 0.0 0.0 0.0 0.0 0.0 3.2 4.8 6.6 9.8 12.0 13.3 8.6 9.9 12.3 7.4 5.4 5.4 4.9 4.8 8.6 2.9
0.0 0.0 0.0 0.0 0.0 0.0 0.0 0.2 1.6 7.4 13.0 11.0 9.4 6.6 5.0 5.8 4.0 5.6 0.0 0.0 3.0 0.0 0.0 0.0 0.4 2.4 3.0 0.9 0.6 0.0 8.4 10.6 10.0 13.0 12.2 16.2 8.7 5.3 3.0 2.2 3.9 4.5 5.7 6.1
0.0 0.0 0.0 0.0 0.0 0.0 0.0 0.0 1.8 6.2 12.8 7.8 8.0 7.8 7.2 4.5 3.2 3.8 2.9 0.0 0.0 0.0 0.2 6.0 9.4 10.6 10.0 7.2 4.6 4.0 3.2 9.1 12.6 14.5 14.6 12.1 10.7 7.0 8.6 9.4 8.1 7.6 8.8 8.6
0.0 0.0 0.0 0.0 0.0 0.0 0.0 0.0 0.0 2.2 12.1 12.9 3.0 5.3 4.8 11.2 12.0 11.0 5.7 0.0 0.0 0.0 5.4 9.2 13.6 15.6 11.2 12.5 10.4 0.6 4.2 4.7 10.4 13.9 17.6 19.5 11.5 6.4 1.1 5.1 13.2 6.8 8.7 9.8
0.0 0.0 0.0 0.0 0.0 0.0 0.0 0.0 0.0 1.6 8.0 6.4 5.0 7.4 7.2 5.4 7.1 11.6 6.0 5.0 4.2 0.6 9.8 13.5 13.5 13.4 6.8 13.1 13.1 12.7 11.8 12.2 13.4 14.6 15.8 13.5 6.6 2.3 0.8 16.2 13.4 8.2 8.2 10.2
0.0 0.0 0.0 0.0 0.0 0.0 0.0 0.0 0.0 2.0 6.4 4.8 2.3 0.0 3.8 2.2 6.2 11.0 5.2 5.8 6.2 8.2 12.0 12.2 12.6 14.5 11.4 12.5 13.0 11.8 12.4 13.7 14.6 13.6 16.0 18.0 4.0 4.6 12.0 8.3 7.1 8.9 11.5 11.4
0.0 0.0 0.0 0.0 0.0 0.0 0.0 3.1 0.0 0.0 3.0 4.0 0.0 0.0 0.0 0.0 0.0 4.2 4.4 4.9 8.2 6.1 10.6 10.4 10.4 11.6 13.2 12.6 16.0 7.4 13.2 11.7 13.0 12.6 12.8 10.5 9.6 9.0 7.8 7.4 6.6 10.4 11.7 12.8
0.0 0.0 0.0 0.0 0.0 0.0 0.0 0.0 0.0 0.0 4.4 4.6 3.0 4.3 0.0 0.0 0.0 0.0 4.4 2.8 2.0 4.3 1.8 9.3 10.2 11.6 10.6 13.3 12.5 12.3 9.9 6.9 12.2 12.1 12.1 11.7 10.9 10.4 10.1 9.5 9.4 11.0 11.4 12.6
0.0 0.0 0.0 0.0 0.0 0.0 0.0 0.0 0.0 0.0 2.0 9.8 8.3 0.0 1.4 0.0 0.0 0.0 0.0 0.0 0.0 0.0 0.0 7.2 8.0 10.0 5.7 11.9 10.8 12.1 9.0 9.0 12.7 12.5 12.1 11.0 10.4 10.0 11.6 11.8 12.1 12.5 13.2 13.3
0.0 0.0 0.0 0.0 0.0 0.0 0.0 0.0 0.0 0.0 2.2 11.2 9.0 1.8 0.0 0.0 0.0 0.0 0.0 0.0 0.0 3.4 8.0 9.8 8.4 7.1 7.7 9.1 8.7 10.9 6.4 10.2 12.1 12.1 5.0 7.0 6.7 11.8 10.8 12.5 12.5 13.0 13.0 14.5
0.0 0.0 0.0 0.0 0.0 0.0 0.0 7.6 0.0 0.0 0.0 7.6 11.4 2.2 2.6 0.0 0.0 0.0 0.0 0.0 0.0 3.8 4.7 6.5 4.4 1.8 4.7 12.6 13.6 7.7 6.2 5.8 5.2 7.2 6.1 9.5 9.5 10.4 9.8 12.9 13.4 12.9 13.5 14.1
0.0 0.0 0.0 0.0 0.0 0.0 3.2 4.8 0.0 0.0 0.0 7.4 11.0 10.0 3.8 0.0 0.0 0.0 0.0 0.0 0.8 0.0 3.3 6.6 6.0 3.8 4.2 10.2 13.1 10.4 10.6 9.3 8.0 9.0 8.8 12.5 11.4 12.5 10.0 12.0 12.4 11.2 13.3 13.3
0.0 0.0 0.0 0.0 0.0 0.0 0.0 0.0 0.0 0.0 1.4 5.6 12.0 11.0 7.2 0.0 6.8 7.4 2.5 1.3 1.1 2.6 5.2 5.0 7.7 5.3 6.4 12.0 10.8 12.2 11.5 10.6 9.8 8.8 7.8 9.2 9.8 9.8 10.8 11.8 13.2 14.0 14.3 14.3
0.0 0.0 0.0 0.0 0.0 2.6 0.0 0.0 0.0 0.0 0.8 9.2 11.2 12.2 15.6 2.4 5.2 3.7 2.1 1.8 6.7 5.4 7.3 8.2 7.2 9.6 13.6 10.8 10.4 12.1 11.2 10.8 11.4 10.6 10.2 10.2 11.4 12.5 12.7 13.2 13.3 13.8 14.1 13.9
0.0 0.0 2.0 7.6 1.2 0.0 0.0 0.0 4.6 5.0 4.3 6.9 11.4 9.4 10.9 6.3 7.5 8.1 7.3 5.9 8.2 13.6 10.5 7.0 8.6 12.3 10.2 8.9 9.0 9.8 8.9 10.0 9.6 13.0 13.3 12.4 12.7 12.8 13.0 13.1 12.7 12.7 13.1 13.4
1.1 7.3 7.1 1.2 0.0 0.9 4.4 9.3 9.3 9.6 12.0 7.7 7.6 7.2 10.1 4.0 7.9 8.8 8.4 9.1 10.1 14.3 12.1 11.3 14.2 14.4 11.8 10.4 10.1 8.0 7.9 9.0 9.0 7.7 8.8 8.8 9.6 12.3 12.7 12.9 12.3 12.3 12.6 13.7
1.0 0.4 0.0 0.2 3.8 7.4 10.8 12.2 12.1 11.6 11.5 10.0 11.1 6.6 4.8 5.0 2.8 8.3 8.7 10.4 11.5 14.5 12.2 13.2 15.1 13.1 12.0 10.8 10.1 8.3 8.2 8.5 8.7 8.8 10.3 10.1 9.8 10.6 11.5 11.8 12.1 12.5 13.8 15.9
0.0 0.1 5.8 7.0 11.7 15.0 15.7 15.9 13.9 13.4 11.7 8.1 6.6 10.4 5.6 4.8 3.7 10.2 10.3 14.8 15.2 12.6 15.2 15.1 14.3 12.3 12.0 10.7 10.1 10.5 8.9 8.6 10.1 11.2 10.6 10.6 11.0 10.4 11.8 13.5 14.3 15.1 15.6 15.9
6.4 9.0 14.0 14.1 15.6 14.2 14.1 13.5 13.2 11.6 9.0 5.8 4.8 9.7 10.0 10.7 10.8 12.5 15.2 14.9 14.3 16.0 16.8 15.7 14.4 12.3 11.5 9.9 8.7 10.2 11.1 9.7 11.1 11.9 12.0 12.4 13.0 13.9 14.0 14.0 14.7 15.2 16.3 17.0
9.4 10.9 16.6 14.5 12.3 11.2 9.6 9.0 9.2 9.9 8.5 2.9 7.6 10.0 9.5 12.3 13.1 13.9 14.5 16.9 16.7 16.4 15.9 14.6 11.0 11.8 11.0 9.9 10.0 10.1 11.3 11.9 12.4 12.2 12.6 13.1 13.4 14.2 14.9 14.8 15.0 15.4 16.3 17.2
10.4 10.8 13.3 12.9 13.0 10.8 8.8 10.0 11.4 7.8 5.0 3.3 4.8 11.3 12.6 14.1 13.9 15.6 16.1 16.4 16.9 16.5 14.5 11.8 9.4 11.0 10.3 10.3 10.0 11.2 12.1 12.2 12.7 12.7 12.6 13.1 13.6 14.2 15.0 15.7 15.9 16.0 16.1 17.2
12.0 14.0 12.9 13.5 12.8 12.7 12.1 10.5 7.6 5.4 3.3 10.6 11.5 14.5 15.3 13.9 16.4 16.6 14.2 17.0 15.0 13.4 12.0 10.6 9.4 9.7 9.8 11.7 12.3 12.6 12.8 13.1 13.4 13.6 13.8 14.2 14.5 15.0 15.5 15.7 16.4 16.8 17.0 17.1